Regional Weather Roundup
Issued by NWS

Home | Current Version | Previous Version | Text Only | Print | Product List | Glossary Off
Versions: 1 2 3 4 5 6 7 8 9 10 11 12 13 14 15 16 17 18 19 20 21 22 23 24 25 26 27 28 29 30 31 32 33 34 35 36 37 38 39 40 41 42 43 44 45 46 47 48 49 50

000
ASUS43 KLOT 271908
RWRIL

ILLINOIS REGIONAL WEATHER ROUNDUP
NATIONAL WEATHER SERVICE CHICAGO/ROMEOVILLE IL
200 PM CDT THU AUG 27 2015

NOTE: "FAIR" INDICATES FEW OR NO CLOUDS BELOW 12,000 FEET WITH NO
SIGNIFICANT WEATHER AND/OR OBSTRUCTIONS TO VISIBILITY.

* THESE STATIONS ARE NOT UNDER NWS QUALITY CONTROL. THEY ALSO MAY NOT
  REPORT WEATHER SUCH AS PRECIPITATION OR FOG.

ILZ001-002-007-009-015-016-024-272000-
NORTHWEST ILLINOIS

CITY           SKY/WX    TMP DP  RH WIND       PRES   REMARKS
MOLINE         CLOUDY    74  59  59 SW7       30.17S
STERLING*      MOSUNNY  N/A N/A N/A SW6       30.14F
SAVANNA*       PTSUNNY   73  56  53 SW6       30.17S
$$

ILZ003-004-008-010-011-017-018-272000-
NORTH CENTRAL ILLINOIS

CITY           SKY/WX    TMP DP  RH WIND       PRES   REMARKS
ROCKFORD       PTSUNNY   74  56  53 SW8       30.18F
FREEPORT*      PTSUNNY   70  56  62 CALM      30.19F
ROCHELLE*      MOSUNNY   70  55  58 CALM      30.18F
DE KALB*       MOSUNNY   71  57  61 S6        30.19F
PERU*          SUNNY     72  53  50 CALM      30.17F
$$

ILZ005-006-012>014-019>023-272000-
NORTHEAST ILLINOIS

CITY           SKY/WX    TMP DP  RH WIND       PRES   REMARKS
CHICAGO-OHARE  MOSUNNY   73  52  47 E6        30.17F
CHICAGO-MIDWAY MOSUNNY   72  53  51 SW5       30.17F
AURORA         MOSUNNY   72  56  57 SW3       30.18F
LANSING*       CLOUDY    68  53  58 CALM      30.19F
JOLIET*        MOSUNNY   72  56  57 E3        30.17F
WAUKEGAN       SUNNY     69  54  58 E8        30.17F
DUPAGE AIRPORT SUNNY     72  53  51 CALM      30.17F
KANKAKEE*      SUNNY     72  57  58 NE6       30.18F
WHEELING       SUNNY     74  51  44 CALM      30.19F
MORRIS*        MOSUNNY   70  56  61 S3        30.17F
ROMEOVILLE*    SUNNY     70  52  53 CALM      30.18F
NORTHERLY ISL    N/A     66  56  70 NE8         N/A
$$

LMZ740>746-272000-
SOUTHERN LAKE MICHIGAN

STATION/POSITION SKY/WX   TEMP    WIND        PRES    VSBY  WAVE
                          AIR SEA DIR/SP/G                  HT/PER
                          (F)     (DEG/KT/KT) (MB)    (MI)  (FT/S)
SOUTHERN BUOY              65 67  190/  8/ 10 1022.2S         1/ 3
HARRISON CRIB              64     310/  3/  3   N/A
BURNHAM HARBOR             67      40/  6/  7   N/A
CALUMET HARBOR             66      40/  4/  5   N/A
BURNS HARBOR               66     330/  6/  7 1023.0R
MICHIGAN CITY              67     320/  5/  6   N/A
MICHIGAN CITY 6N           67 71   10/  2/  4   N/A           1
ST. JOSEPH                 67 71  320/  4/  6   N/A           1
$$

ILZ025>027-034>036-040-047-049-050-058-095>099-272000-
WEST-CENTRAL ILLINOIS

CITY           SKY/WX    TMP DP  RH WIND       PRES   REMARKS
QUINCY         CLOUDY    74  56  53 VRB3      30.17F
GALESBURG*     CLOUDY    71  59  64 S6        30.17F
MACOMB*        CLOUDY    73  58  58 S5        30.19F
JACKSONVILLE*  PTSUNNY   76  60  56 NW5       30.15F
PITTSFIELD*    PTSUNNY   74  56  53 CALM      30.18S
$$

ILZ028>032-037-038-041>044-048-051>054-059>061-272000-
CENTRAL ILLINOIS

CITY           SKY/WX    TMP DP  RH WIND       PRES   REMARKS
PONTIAC        SUNNY     73  60  63 E3        30.17F
BLOOMINGTON    SUNNY     76  59  55 E7        30.17F
DECATUR        SUNNY     77  58  51 VRB5      30.16F
PEORIA         PTSUNNY   75  56  51 VRB5      30.16F
LACON*         MOSUNNY   73  56  57 CALM      30.16F
LINCOLN*       MOSUNNY   77  55  46 CALM      30.15F
SPRINGFIELD    PTSUNNY   76  57  51 CALM      30.16F
TAYLORVILLE    MOSUNNY   75  59  57 W3        30.15F
$$

ILZ033-039-045-046-055>057-062-063-272000-
EAST-CENTRAL ILLINOIS

CITY           SKY/WX    TMP DP  RH WIND       PRES   REMARKS
CHAMPAIGN      MOSUNNY   76  59  55 CALM      30.16F
RANTOUL*       MOSUNNY   76  60  58 N5        30.17F
MATTOON        SUNNY     78  55  44 CALM      30.15F
PARIS*         MOSUNNY   78  59  53 CALM      30.16S
$$

ILZ079-100>102-272000-
SOUTHWEST ILLINOIS

CITY           SKY/WX    TMP DP  RH WIND       PRES   REMARKS
ALTON          PTSUNNY   75  59  57 N6        30.15F
BELLEVILLE     MOSUNNY   76  59  55 VRB2      30.13F
CAHOKIA*       MOSUNNY   79  54  41 VRB3      30.14F
SPARTA*        MOSUNNY   74  57  54 W3        30.16F
$$

ILZ064>066-069>071-074>076-080>082-084>086-088>090-092>094-272000-
SOUTH-CENTRAL ILLINOIS

CITY           SKY/WX    TMP DP  RH WIND       PRES   REMARKS
CARBONDALE     MOSUNNY   78  57  48 CALM      30.15F
CAIRO*         MOSUNNY   79  65  62 NW6       30.14F HX  81
EFFINGHAM*     SUNNY     78  52  40 CALM      30.17F
MARION         CLOUDY    79  57  47 W7        30.16S HX  80
MT. VERNON     PTSUNNY   79  57  47 SW6       30.16F HX  80
CENTRALIA*     MOSUNNY   76  59  54 SW5       30.15F
SALEM*         SUNNY     77  57  49 NW3       30.16F
METROPOLIS*    CLOUDY    77  63  61 NE5       30.15S
$$

ILZ067-068-072-073-078-083-087-091-272000-
SOUTHEAST ILLINOIS

CITY           SKY/WX    TMP DP  RH WIND       PRES   REMARKS
LAWRENCEVILLE  SUNNY     81  57  43 S7        30.15R HX  81
FLORA*         SUNNY     80  56  42 W3        30.16F HX  80
FAIRFIELD*     MOSUNNY   77  58  52 NW3       30.14F
HARRISBURG*    PTSUNNY   78  58  51 NW5       30.15S HAZE
ROBINSON*      MOSUNNY   81  58  45 W5        30.16R HX  81
CARMI*         SUNNY     78  59  52 CALM      30.15R
$$

ABBREVIATIONS USED IN REMARKS
   TC - TEMPERATURE IN CELSIUS
  WCI - WIND CHILL INDEX
   HX - HEAT INDEX
  VSB - VISIBILITY
$$




USA.gov is the U.S. government's official web portal to all federal, state and local government web resources and services.